Espace membre
Imprimable
Middelkerke, 27/01/2018, BEL - CoastRace Middelkerke
Liste des rapports > 38km - Classement
Recherche: Page: [1]
197 Entrées
 
Les réclamations ne sont plus acceptées, les résultats sont considérés comme définitifs.
RangNrNomAgeIOCTempsTkmMoy.ScrLocalité
1.521IMMING Bram28NLD1:16:332:01 29.7918EGMOND-BINNEN
2.660VAN DAMME Christophe39BEL1:16:342:01 29.7819EERNEGEM
3.753D'HOORE Giorgio24BEL1:16:502:02 29.6820KORTEMARK
4.757VANDEN BON Jurgen39BEL1:16:522:02 29.6722OOSTENDE
5.533DECLERCK Kristof35BEL1:16:542:02 29.6523KOKSIJDE
6.554DE BOCK Robby30BEL1:17:192:03 29.5027MELSELE
7.621RYELANDT Bryan26BEL1:17:302:03 29.4229KNOKKE
8.547GEERAERTS Joni25BEL1:17:402:03 29.3630GEEL
9.758DE KINDER Jurgen36BEL1:18:012:04 29.2332GELUVELD
10.520IMMING Toon22NLD1:18:012:04 29.2333EGMOND-BINNEN
11.747ESSELENS Michaël32BEL1:18:032:04 29.2234MAZENZELE
12.506VANDAELE Philip33BEL1:18:082:04 29.1838KLUISBERGEN
13.716VAN ROEY Wim33BEL1:18:112:04 29.1639VOSSELAAR
14.519MOLMY Arnauf30FRA1:18:442:05 28.9643MARCK
15.727BEGHIN Siel26BEL1:19:232:06 28.7344OOSTDUINKERKE
16.755HUYSSER Jeroen27BEL1:19:352:06 28.6547WERVIK
17.633GRILLET Thomas23BEL1:19:462:06 28.5951GISTEL
18.539PYLYSER Dieter36BEL1:19:592:07 28.5153MIDDELKERKE
19.690STOFFERIS Rieno40BEL1:20:062:07 28.4754MALDEGEM
20.509VAN RUYMBEKE Thieme24BEL1:20:432:08 28.2556AALTER
21.592DALLE Dany53BEL1:20:442:08 28.2457BLANKENBERGE
22.681VAN DAEL Pieter40BEL1:20:452:08 28.2458DUDZELE
23.917FINOULST Jan-Frederik26BEL1:20:512:08 28.2059SINT-PAUWELS
24.663VAN DAELE Tim38BEL1:21:062:09 28.1261BURCHT
25.664LEURIDAN Tijs31BEL1:21:082:09 28.1162VEURNE
26.678STUBBE Michiel36BEL1:21:562:10 27.8366ZWEVEGEM
27.626KRAMAR Tony43BEL1:22:102:10 27.7567OOSTENDE
28.545VERLET Benjamin39BEL1:22:112:10 27.7568OOSTENDE
29.524RINGOT Romain32FRA1:22:312:11 27.6370HEURINGHEM
30.550VANDAMME Tim28BEL1:22:432:11 27.5771SINT-ANDRIES
31.627VANSIELEGHEM Jasper28BEL1:22:542:11 27.5072BREDENE
32.514VANTORRE Vincent36BEL1:22:572:11 27.4973OOSTKAMP
33.510JONCKHEERE Michael28BEL1:23:012:12 27.4775HOUTHULST
34.622DE BRUYN Johan49BEL1:23:072:12 27.4376LOKEREN
35.515WAUTERS Brett35BEL1:23:082:12 27.4377WAMBEEK
36.629VELLE Glenn27BEL1:23:082:12 27.4378OOSTENDE
37.637CERDOBBEL Tom29BEL1:23:082:12 27.4379ALVERINGEM
38.717KUYPERS Bart40BEL1:23:142:12 27.3982DIKSMUIDE
39.711DEBOUTTE Emmanuel44BEL1:23:272:12 27.3286WERVIK
40.675DE LANDTSHEER Steven36BEL1:24:032:13 27.1391BEERNEM
41.641VANROLLEGHEM Kris45BEL1:24:122:13 27.0894KORTEMARK
42.750SABBE Jonas32BEL1:24:122:13 27.0895OOSTENDE
43.636DELAERE Robin23BEL1:24:162:14 27.0696BREDENE
44.741DE LEERSNYDER Dominique47BEL1:24:312:14 26.9897ARDOOIE
45.631LODEWYCK Thijs26BEL1:24:312:14 26.9898GITS
46.531SURAY Damien36BEL1:24:372:14 26.9599GREZ-DOICEAU
47.743OVAERE Jonas26BEL1:24:422:14 26.92101DEERLIJK
48.672GROOTAERT Jelle25BEL1:25:082:15 26.79102GENT
49.695BOGAERT Dieter38BEL1:25:102:15 26.77104WAARSCHOOT
50.721DEVOLDER Jonathan27BEL1:25:292:15 26.67105KORTRIJK
51.605SABBE Joost19BEL1:25:522:16 26.56106LEFFINGE
52.512RICOUART Gerard39FRA1:26:252:17 26.39110SANGATTE
53.680MAES Kevin31BEL1:26:402:17 26.31112BREDENE
54.653VANSIELEGHEM Lander30BEL1:26:402:17 26.31113OOSTENDE
55.719HUYGHE Jeroen39BEL1:26:482:18 26.27114ADINKERKE
56.745EMBRECHTS Paul42BEL1:26:532:18 26.24115KASTERLEE
57.688DESMET Ruben30BEL1:27:022:18 26.20116KOEKELARE
58.705BIESEMANS Gunther45BEL1:27:032:18 26.20117LONDERZEEL
59.715VANDOUSSELAERE Rino44BEL1:27:222:18 26.10118BREDENE
60.694NOTTE Kenneth35BEL1:27:262:19 26.08119BASSEVELDE
61.656MIDAVAINE Guillaume34BEL1:27:272:19 26.08120OOSTDUINKERKE
62.913VERTONGHEN Maxim24BEL1:27:272:19 26.07121BUGGENHOUT
63.673MAES Jo37BEL1:27:432:19 25.99122ZOTTEGEM
64.651ASSELMAN Kris43BEL1:27:462:19 25.98123SINT-PIETERS-LEEUW
65.683DE BEYTER Willem32BEL1:27:472:19 25.98124GAVERE
66.603FOCKE Kris49BEL1:27:482:19 25.97125OOSTENDE
67.722WILLAERT Justin31BEL1:28:062:20 25.88126OOSTENDE
68.668EYGENRAAM Ken36BEL1:28:062:20 25.88127AARTSELAAR
69.640VANDEVIVERE Frederick38BEL1:28:242:20 25.79130GELUWE
70.598GEERAERTS Jo52BEL1:28:272:20 25.78131MEERHOUT
71.724PYLYSER Stefaan45BEL1:28:272:20 25.78132WESTENDE
72.659DE GRAVE Davy30BEL1:28:312:20 25.76133ADINKERKE
73.751NONNEMAN Bart39BEL1:28:332:20 25.75134LOKEREN
74.516VAN LANGENHOVE Danny41BEL1:28:352:20 25.74135GENTBRUGGE
75.538DESTOOP Detlev36BEL1:28:412:21 25.71136HARELBEKE
76.685DELAERE Marc50BEL1:28:442:21 25.70137BREDENE
77.704NOTTE Joachim37BEL1:28:522:21 25.66138WAARSCHOOT
78.553DE CLERCQ Patrick49BEL1:28:552:21 25.65139MOERBEKE
79.670VLAMYNCK Kris51BEL1:28:572:21 25.64140KORTEMARK
80.630POISSONNIER Wesley38BEL1:28:582:21 25.63141KORTEMARK
81.623FDUMON Charlotte26BEL1:29:102:21 25.57142VEURNE
82.700DE SCHOESITTER Steven43BEL1:30:112:23 25.28144WAASMUNSTER
83.534EVRAERT Niels23BEL1:30:212:23 25.24145GAVERE
84.616DE BLAERE Sven41BEL1:30:272:23 25.21146KNESSELARE
85.523LEROUX Samuel24FRA1:30:282:23 25.21147SAMER
86.528BUFFEL Bruno42BEL1:30:342:23 25.18148RUDDERVOORDE
87.614DE CLOEDT Rutger35BEL1:31:002:24 25.06149OOSTENDE
88.686PYLYSER Steve43BEL1:31:002:24 25.06150OOSTENDE
89.667DE ROOS Stany54BEL1:31:072:24 25.02151HAMME
90.734VANNESTE Francis49BEL1:31:122:24 25.00152ROESELARE
91.703BIERNACKI Alexandre35FRA1:31:142:25 24.99154CAMIERS
92.638BRUYNINCKX Geert43BEL1:31:352:25 24.90155RILLAAR
93.698DE BAERE Stefan48BEL1:31:552:26 24.81156KNESSELARE
94.646DE BEIR Joeri39BEL1:32:152:26 24.72157ICHTEGEM
95.657DESOMER Peter39BEL1:32:162:26 24.71158BREDENE
96.718BAERT Claude35BEL1:32:382:27 24.61160DEERLIJK
97.530VERHAEGHE Bruno43BEL1:32:392:27 24.61161MENEN
98.661VOLDERS Guy57BEL1:32:552:27 24.54162AVERBODE
99.634SABBE Stijn29BEL1:32:552:27 24.54163OOSTENDE
100.628VAN HOEY Gert40BEL1:32:572:27 24.53164EKE-NAZARETH
101.639VANSLAMBROUCK Stijn34BEL1:33:032:27 24.50165RUDDERVOORDE
102.610SARAZIJN Boris28BEL1:33:042:27 24.50166KEIEM
103.699STADEUS Joeri45BEL1:33:182:28 24.44167MALDEGEM
104.529VLAEMINCK Kurt43BEL1:33:212:28 24.42168KORTEMARK
105.597DEVLEESCHAUWER Philippe46BEL1:33:262:28 24.41169VOORDE
106.602VAN ACHTER Jurgen49BEL1:33:342:28 24.37170ZOTTEGEM
107.604VIAENE Pascal43BEL1:33:352:28 24.36171ZWEVEGEM
108.542COPPEJANS Jens33BEL1:34:062:29 24.23173LOKEREN
109.658DEKINDT Kenneth27BEL1:34:182:29 24.18174ADINKERKE
110.580NEYENS Olivier42BEL1:34:422:30 24.08175NIJLEN
111.595D’HOORE Laurens28BEL1:35:102:31 23.96176VARSENARE
112.652BERTELS Ronny51BEL1:35:382:31 23.84177BREDENE
113.590WOUTERS Bjorn40BEL1:35:462:32 23.81178HEIST O/D BERG
114.693AUTEKIE Frederique33BEL1:36:032:32 23.74179WAARSCHOOT
115.726LOGGHE Thibaut33BEL1:36:522:33 23.54180TORHOUT
116.732DECLEIR Kenneth35BEL1:37:022:34 23.50181ICHTEGEM
117.543VERBRUGGHE Jacky55FRA1:37:122:34 23.46182DUNKERQUE
118.544MARTENS Tom35BEL1:38:022:35 23.26183HELCHTEREN
119.606VANDENBUSSCHE Steve34BEL1:38:082:35 23.24184LOMBARDSIJDE
120.601MICHIELS Hans54BEL1:38:122:36 23.22185ZOTTEGEM
121.671VAN OVERBERGHE Dirk52BEL1:38:222:36 23.18186DIKSMUIDE
122.548JACOBS Chris52BEL1:38:222:36 23.18187ESSEN
123.549DUCHATEAU Nordine41FRA1:38:262:36 23.16188CALAIS
124.635SANDER Dieter46BEL1:38:262:36 23.16189DE HAAN
125.644BRUYNOOGHE Niels18BEL1:38:542:37 23.05191BREDENE
126.513MASSON Nicolas48FRA1:40:392:39 22.66193RIVECOURT
127.674GEVAERT Dempsy30BEL1:40:502:40 22.61194INGELMUNSTER
128.591NEVEUX Kim40BEL1:40:552:40 22.60195RIJMENAM
129.706VERHELST Mario46BEL1:41:002:40 22.58196WAARSCHOOT 202
130.712DELVA Jérémie33BEL1:41:382:41 22.43197KORTRIJK
131.527DEZWARTE Frank53BEL1:41:502:41 22.39198WEERDE
132.655DEGRYSE Donovan34BEL1:41:512:41 22.39199ROESELARE
133.551VAN RECHEM Kurt48BEL1:42:542:43 22.16200EVERBERG
134.749COPPENS Kevin32BEL1:42:542:43 22.16201OPWIJK
135.536BOGAERT Patrick53BEL1:43:212:44 22.06202VLOESBERG
136.684SAMYN Andy45BEL1:43:232:44 22.05203MENEN
137.714DELVA Frederic45BEL1:43:242:44 22.05204WERVIK
138.689DE WINTER Ruben35BEL1:43:552:45 21.94205DADIZELE
139.559HANSSENS Sammy39BEL1:45:132:47 21.67206WEVELGEM
140.730DE JONGHE Patrick52BEL1:45:192:47 21.65207NIEUWKERKEN WAAS
141.556DEBLOCK Frederik35BEL1:45:222:47 21.64208KERKHOVE
142.710VAN DER KERKEN Hans35BEL1:46:072:48 21.49209RANST
143.552MOUILLARD Alexandre32FRA1:46:152:48 21.46210RINXENT
144.618HAELEMEERSCH Rik49BEL1:46:422:49 21.37211RUDDERVOORDE
145.687LARIDON Bjorn31NLD1:47:172:50 21.25212MIDDELKERKE
146.650VAN DE VELDE Tibo17BEL1:47:202:50 21.24213BREDENE
147.662VAN STEEN Jan64BEL1:47:212:50 21.24214BERLARE
148.649LEMEIRE Frederic50BEL1:47:382:50 21.18215KORTRIJK
149.665SMAGGHE Jens25BEL1:48:162:51 21.06216MIDDELKERKE
150.696VAN DRIESSCHE Bart39BEL1:48:232:52 21.04217BREDENE
151.625TYTECA Walter61BEL1:49:372:54 20.80218WESTENDE
152.707BROECKX Arne37BEL1:49:472:54 20.77219DESSEL
153.624DERAMOUDT Marc63BEL1:49:482:54 20.77220LOMBARDSIJDE
154.607OPSTAELE Bram34BEL1:50:182:55 20.67221GISTEL
155.697POLLET Vincent29FRA1:51:022:56 20.54222HENIN BEAUMONT
156.713VANHOORNE Kris45BEL1:53:243:00 20.11223IEPER
157.682BISAERTS Tim36BEL1:55:193:03 19.77225AFFLIGEM
158.677DE LOOF Indiana30BEL1:55:283:03 19.75226KNOKKE-HEIST
159.617CALLEWAERT Didier44BEL1:59:363:09 19.06227HILLEGEM
160.594MEGANCK Mathias35BEL2:03:473:16 18.42228MOERKERKE
161.647VERCOUILLIE Maxim19BEL2:08:253:23 17.76229BREDENE
162.537FMONTENY Joyce21BEL2:08:253:23 17.76230MIDDELKERKE
163.728RIJDANT Kurt46BEL2:10:083:26 17.52231WICHELEN
DSQ557DEMAEREL Romano35BELOOSTENDE
DSQ643VAN MOURIK Jeroen39NLD46:17ZIERIKZEE
DSQ642HARMS Jeremy44NLD46:19SCHOUWEN-DUIVELAND
DSQ526GOOSSENS Ludo48BEL54:20BERLARE
DSQ729CORNELIS Pieter30BEL1:02:49KESTER
DSQ723VICTOR Birger27BEL1:15:09KLUISBERGEN
DSQ733BONTE Johan48BEL1:35:28DADIZELE
DSQ540DE MEY Reinout27BEL1:44:09NIEL
DNF612BELLIGH Jonathan19BELMIDDELKERKE
DNF613BLOCKMANS Bart35BELNOSSEGEM
DNF558CATTOOR Yoshi19BELBREDENE
DNF522DAENINCK Benoît37FRAMARCK
DNF535DE BACKER Joachim26BELDESTELBERGEN
DNF541DELHAYE Rudy30FRASAINT-VAAST-EN-CAMBRÉSIS
DNF748DEZWARTE Tom24BELWEERDE
DNF746GEERTS Walter53BELKAPELLEN
DNF676FGHYSELEN Deborah31BELMENEN
DNF701HEETHEM Stefaan48BELOUDENBURG
DNF740JANSEN Richard25NLDASSENDELFT
DNF742LAHAYE Christophe36BELGISTEL
DNF702MACHADO Jérémie42FRASAINT ETIENNE AU MONT
DNF620MUES Filip43BELSCHERPENHEUVEL
DNF599PASCUAL Nicolas37BELMENEN
DNF691PATTYN Filip48BELTORHOUT
DNF679PELSMAEKERS Ben37BELGEEL
DNF619STEEN Patrick19BELMIDDELKERKE
DNF532TAILLIEU Christophe46BELAALTER
DNF600VAN GESTEL Jeroen34BELLOENHOUT
DNF736VANHERCKE Lieven31NLDOOSTENDE
DNF546VANHOEK Robbie39BELHANDZAME
DNF754VANLUCHENE Mats29BELWIELSBEKE
DNF648VERCOUILLIE Frederic38BELBREDENE
DNF725VERMEIREN Gianni22BELMEERDONK
DNF720VERVOORT Dylan26BELWIEKEVORST
DNF: abandon; DSQ: disqualifié; Vitesse en km/h
Page: [1]